| time (UTC) | temp F | wind direction | speed MPH | gust MPH | rain 1hr in | rain 24hr in | rain mn in | humidity % | barometer mb |
| 20260507172234 | 88 | 83 | 3.0 | 3.0 | 0.00 | 0.00 | 0.00 | 12 | 1012.5 |
| 20260507171734 | 88 | 334 | 3.0 | 3.0 | 0.00 | 0.00 | 0.00 | 13 | 1012.6 |
| 20260507171232 | 88 | 72 | 3.0 | 3.0 | 0.00 | 0.00 | 0.00 | 12 | 1012.5 |
| 20260507170729 | 88 | 321 | 3.0 | 5.0 | 0.00 | 0.00 | 0.00 | 12 | 1012.4 |
| 20260507170226 | 88 | 4 | 0.0 | 0.0 | 0.00 | 0.00 | 0.00 | 13 | 1012.5 |
| 20260507165721 | 88 | 95 | 1.0 | 1.0 | 0.00 | 0.00 | 0.00 | 12 | 1012.6 |
| 20260507165217 | 87 | 7 | 1.0 | 1.0 | 0.00 | 0.00 | 0.00 | 12 | 1012.5 |
| 20260507164714 | 89 | 274 | 2.0 | 3.0 | 0.00 | 0.00 | 0.00 | 12 | 1012.8 |
| 20260507164211 | 88 | 319 | 2.0 | 3.0 | 0.00 | 0.00 | 0.00 | 12 | 1012.9 |
| 20260507163708 | 87 | 2 | 0.0 | 0.0 | 0.00 | 0.00 | 0.00 | 12 | 1012.7 |
| 20260507163206 | 86 | 50 | 3.0 | 5.0 | 0.00 | 0.00 | 0.00 | 12 | 1012.7 |
| 20260507162702 | 86 | 20 | 2.0 | 2.0 | 0.00 | 0.00 | 0.00 | 12 | 1012.7 |
| 20260507162158 | 87 | 8 | 1.0 | 1.0 | 0.00 | 0.00 | 0.00 | 12 | 1013.0 |
| 20260507161654 | 88 | 13 | 1.0 | 1.0 | 0.00 | 0.00 | 0.00 | 12 | 1013.0 |
| 20260507161150 | 87 | 297 | 0.0 | 1.0 | 0.00 | 0.00 | 0.00 | 13 | 1013.0 |
| 20260507160647 | 87 | 11 | 1.0 | 1.0 | 0.00 | 0.00 | 0.00 | 13 | 1013.0 |
| 20260507160144 | 86 | 357 | 2.0 | 3.0 | 0.00 | 0.00 | 0.00 | 12 | 1013.0 |
| 20260507155639 | 86 | 58 | 2.0 | 2.0 | 0.00 | 0.00 | 0.00 | 12 | 1012.9 |
| 20260507155136 | 86 | 339 | 0.0 | 0.0 | 0.00 | 0.00 | 0.00 | 17 | 1013.1 |
| 20260507154633 | 85 | 352 | 0.0 | 0.0 | 0.00 | 0.00 | 0.00 | 17 | 1013.0 |
| 20260507154131 | 84 | 285 | 2.0 | 3.0 | 0.00 | 0.00 | 0.00 | 19 | 1013.3 |
| 20260507153627 | 82 | 352 | 0.0 | 0.0 | 0.00 | 0.00 | 0.00 | 20 | 1013.1 |
| 20260507153123 | 81 | 345 | 1.0 | 1.0 | 0.00 | 0.00 | 0.00 | 21 | 1012.9 |
| 20260507152620 | 81 | 350 | 0.0 | 0.0 | 0.00 | 0.00 | 0.00 | 22 | 1013.2 |
| 20260507152116 | 81 | 323 | 1.0 | 1.0 | 0.00 | 0.00 | 0.00 | 22 | 1013.3 |
| 20260507151612 | 79 | 358 | 0.0 | 0.0 | 0.00 | 0.00 | 0.00 | 24 | 1013.2 |
| 20260507151109 | 80 | 350 | 0.0 | 0.0 | 0.00 | 0.00 | 0.00 | 24 | 1013.1 |
| 20260507150606 | 79 | 342 | 0.0 | 0.0 | 0.00 | 0.00 | 0.00 | 25 | 1013.1 |
| 20260507145558 | 78 | 357 | 0.0 | 0.0 | 0.00 | 0.00 | 0.00 | 25 | 1013.0 |
| 20260507145056 | 78 | 356 | 0.0 | 0.0 | 0.00 | 0.00 | 0.00 | 25 | 1013.3 |
| 20260507144552 | 78 | 359 | 0.0 | 0.0 | 0.00 | 0.00 | 0.00 | 26 | 1013.3 |
| 20260507144050 | 76 | 349 | 0.0 | 0.0 | 0.00 | 0.00 | 0.00 | 26 | 1013.2 |
| 20260507143546 | 75 | 350 | 0.0 | 0.0 | 0.00 | 0.00 | 0.00 | 27 | 1013.1 |
| 20260507143044 | 75 | 3 | 0.0 | 0.0 | 0.00 | 0.00 | 0.00 | 26 | 1013.1 |
| 20260507142539 | 75 | 341 | 0.0 | 0.0 | 0.00 | 0.00 | 0.00 | 27 | 1013.3 |
| 20260507142036 | 75 | 19 | 0.0 | 0.0 | 0.00 | 0.00 | 0.00 | 27 | 1013.3 |
| 20260507141532 | 74 | 358 | 0.0 | 0.0 | 0.00 | 0.00 | 0.00 | 27 | 1013.1 |
| 20260507141029 | 72 | 347 | 0.0 | 0.0 | 0.00 | 0.00 | 0.00 | 29 | 1013.1 |
| 20260507140526 | 70 | 354 | 0.0 | 0.0 | 0.00 | 0.00 | 0.00 | 30 | 1012.9 |
| 20260507140024 | 70 | 343 | 1.0 | 2.0 | 0.00 | 0.00 | 0.00 | 30 | 1013.1 |
| 20260507135520 | 70 | 355 | 0.0 | 0.0 | 0.00 | 0.00 | 0.00 | 30 | 1013.1 |
| 20260507135018 | 69 | 0 | 0.0 | 0.0 | 0.00 | 0.00 | 0.00 | 30 | 1013.1 |
| 20260507134514 | 68 | 0 | 0.0 | 0.0 | 0.00 | 0.00 | 0.00 | 31 | 1013.0 |
| 20260507134009 | 68 | 357 | 0.0 | 0.0 | 0.00 | 0.00 | 0.00 | 31 | 1012.9 |
| 20260507133506 | 67 | 345 | 0.0 | 0.0 | 0.00 | 0.00 | 0.00 | 32 | 1012.9 |
| 20260507133005 | 66 | 352 | 0.0 | 0.0 | 0.00 | 0.00 | 0.00 | 32 | 1012.9 |
| 20260507132500 | 65 | 343 | 0.0 | 0.0 | 0.00 | 0.00 | 0.00 | 33 | 1013.0 |
| 20260507131957 | 64 | 355 | 0.0 | 0.0 | 0.00 | 0.00 | 0.00 | 34 | 1012.9 |
| 20260507131454 | 64 | 338 | 0.0 | 0.0 | 0.00 | 0.00 | 0.00 | 34 | 1012.5 |
| 20260507130951 | 63 | 1 | 0.0 | 0.0 | 0.00 | 0.00 | 0.00 | 34 | 1012.7 |
| 20260507130448 | 63 | 350 | 0.0 | 0.0 | 0.00 | 0.00 | 0.00 | 35 | 1012.8 |
| 20260507125946 | 62 | 355 | 0.0 | 0.0 | 0.00 | 0.00 | 0.00 | 35 | 1012.7 |
| 20260507125444 | 62 | 355 | 0.0 | 0.0 | 0.00 | 0.00 | 0.00 | 35 | 1012.7 |
| 20260507124941 | 62 | 354 | 0.0 | 0.0 | 0.00 | 0.00 | 0.00 | 35 | 1012.6 |
| 20260507124437 | 62 | 352 | 0.0 | 0.0 | 0.00 | 0.00 | 0.00 | 35 | 1012.3 |
| 20260507123936 | 62 | 349 | 0.0 | 0.0 | 0.00 | 0.00 | 0.00 | 35 | 1012.5 |
| 20260507123433 | 62 | 353 | 0.0 | 0.0 | 0.00 | 0.00 | 0.00 | 35 | 1012.6 |
| 20260507122929 | 62 | 350 | 0.0 | 0.0 | 0.00 | 0.00 | 0.00 | 35 | 1012.5 |
| 20260507122424 | 62 | 354 | 0.0 | 0.0 | 0.00 | 0.00 | 0.00 | 35 | 1012.5 |
| 20260507121921 | 63 | 355 | 0.0 | 0.0 | 0.00 | 0.00 | 0.00 | 35 | 1012.5 |
| 20260507121416 | 63 | 345 | 0.0 | 0.0 | 0.00 | 0.00 | 0.00 | 35 | 1012.5 |
| 20260507120913 | 63 | 350 | 0.0 | 0.0 | 0.00 | 0.00 | 0.00 | 34 | 1012.5 |
| 20260507120409 | 63 | 344 | 0.0 | 0.0 | 0.00 | 0.00 | 0.00 | 34 | 1012.4 |
| 20260507115906 | 63 | 350 | 0.0 | 0.0 | 0.00 | 0.00 | 0.00 | 34 | 1012.3 |
| 20260507115402 | 63 | 350 | 0.0 | 0.0 | 0.00 | 0.00 | 0.00 | 34 | 1012.6 |
| 20260507114858 | 63 | 349 | 0.0 | 0.0 | 0.00 | 0.00 | 0.00 | 34 | 1012.7 |
| 20260507114355 | 63 | 0 | 0.0 | 0.0 | 0.00 | 0.00 | 0.00 | 34 | 1012.8 |
| 20260507113852 | 63 | 11 | 0.0 | 0.0 | 0.00 | 0.00 | 0.00 | 34 | 1012.7 |
| 20260507113349 | 62 | 349 | 0.0 | 0.0 | 0.00 | 0.00 | 0.00 | 35 | 1012.7 |
| 20260507112846 | 62 | 351 | 0.0 | 0.0 | 0.00 | 0.00 | 0.00 | 35 | 1012.6 |
| 20260507112343 | 62 | 350 | 0.0 | 0.0 | 0.00 | 0.00 | 0.00 | 35 | 1012.8 |
| 20260507111841 | 62 | 352 | 0.0 | 0.0 | 0.00 | 0.00 | 0.00 | 35 | 1013.1 |
| 20260507111338 | 62 | 352 | 0.0 | 0.0 | 0.00 | 0.00 | 0.00 | 35 | 1012.9 |
| 20260507110834 | 62 | 349 | 0.0 | 0.0 | 0.00 | 0.00 | 0.00 | 35 | 1013.0 |
| 20260507110330 | 63 | 346 | 0.0 | 0.0 | 0.00 | 0.00 | 0.00 | 34 | 1012.9 |
| 20260507105827 | 63 | 351 | 0.0 | 0.0 | 0.00 | 0.00 | 0.00 | 34 | 1012.9 |
| 20260507105324 | 63 | 351 | 0.0 | 0.0 | 0.00 | 0.00 | 0.00 | 33 | 1012.9 |
| 20260507104821 | 63 | 353 | 0.0 | 0.0 | 0.00 | 0.00 | 0.00 | 33 | 1013.1 |
| 20260507104317 | 63 | 351 | 0.0 | 0.0 | 0.00 | 0.00 | 0.00 | 33 | 1012.8 |
| 20260507103813 | 64 | 354 | 0.0 | 0.0 | 0.00 | 0.00 | 0.00 | 33 | 1013.2 |
| 20260507103309 | 64 | 347 | 0.0 | 0.0 | 0.00 | 0.00 | 0.00 | 32 | 1013.0 |
| 20260507102806 | 65 | 352 | 0.0 | 1.0 | 0.00 | 0.00 | 0.00 | 31 | 1013.1 |
| 20260507102306 | 65 | 329 | 1.0 | 1.0 | 0.00 | 0.00 | 0.00 | 31 | 1013.2 |
| 20260507101759 | 65 | 343 | 0.0 | 0.0 | 0.00 | 0.00 | 0.00 | 32 | 1013.1 |
| 20260507101254 | 64 | 349 | 0.0 | 0.0 | 0.00 | 0.00 | 0.00 | 33 | 1013.1 |
| 20260507100751 | 65 | 352 | 0.0 | 0.0 | 0.00 | 0.00 | 0.00 | 32 | 1013.2 |
| 20260507100249 | 66 | 351 | 0.0 | 0.0 | 0.00 | 0.00 | 0.00 | 32 | 1013.2 |
| 20260507095747 | 66 | 6 | 0.0 | 0.0 | 0.00 | 0.00 | 0.00 | 31 | 1013.0 |
| 20260507095243 | 66 | 355 | 0.0 | 0.0 | 0.00 | 0.00 | 0.00 | 30 | 1013.0 |
| 20260507094740 | 66 | 352 | 0.0 | 0.0 | 0.00 | 0.00 | 0.00 | 30 | 1013.0 |
| 20260507094237 | 66 | 357 | 0.0 | 0.0 | 0.00 | 0.00 | 0.00 | 30 | 1012.9 |
| 20260507093734 | 66 | 6 | 0.0 | 1.0 | 0.00 | 0.00 | 0.00 | 30 | 1012.9 |
| 20260507093233 | 66 | 343 | 0.0 | 0.0 | 0.00 | 0.00 | 0.00 | 30 | 1013.0 |
| 20260507092730 | 66 | 351 | 0.0 | 0.0 | 0.00 | 0.00 | 0.00 | 30 | 1012.9 |
| 20260507092226 | 66 | 353 | 0.0 | 0.0 | 0.00 | 0.00 | 0.00 | 30 | 1013.1 |
| 20260507091722 | 66 | 347 | 0.0 | 0.0 | 0.00 | 0.00 | 0.00 | 30 | 1013.1 |
| 20260507091219 | 66 | 351 | 0.0 | 0.0 | 0.00 | 0.00 | 0.00 | 30 | 1013.4 |
| 20260507090719 | 66 | 336 | 0.0 | 0.0 | 0.00 | 0.00 | 0.00 | 30 | 1013.1 |
| 20260507090217 | 66 | 346 | 0.0 | 0.0 | 0.00 | 0.00 | 0.00 | 30 | 1013.1 |
| 20260507085714 | 66 | 342 | 0.0 | 0.0 | 0.00 | 0.00 | 0.00 | 30 | 1013.4 |
| 20260507085211 | 66 | 351 | 0.0 | 0.0 | 0.00 | 0.00 | 0.00 | 30 | 1013.3 |
| 20260507084708 | 66 | 3 | 0.0 | 0.0 | 0.00 | 0.00 | 0.00 | 29 | 1013.5 |
| 20260507084204 | 67 | 340 | 0.0 | 0.0 | 0.00 | 0.00 | 0.00 | 29 | 1013.1 |
| 20260507083701 | 67 | 351 | 0.0 | 0.0 | 0.00 | 0.00 | 0.00 | 29 | 1013.2 |
| 20260507083158 | 67 | 353 | 0.0 | 0.0 | 0.00 | 0.00 | 0.00 | 29 | 1013.3 |
| 20260507082654 | 67 | 351 | 0.0 | 0.0 | 0.00 | 0.00 | 0.00 | 30 | 1013.2 |
| 20260507082150 | 67 | 350 | 0.0 | 0.0 | 0.00 | 0.00 | 0.00 | 29 | 1013.4 |
| 20260507081647 | 67 | 345 | 0.0 | 0.0 | 0.00 | 0.00 | 0.00 | 29 | 1013.5 |
| 20260507081143 | 66 | 351 | 0.0 | 0.0 | 0.00 | 0.00 | 0.00 | 31 | 1013.3 |
| 20260507080640 | 66 | 352 | 0.0 | 0.0 | 0.00 | 0.00 | 0.00 | 32 | 1013.2 |
| 20260507080136 | 66 | 351 | 0.0 | 0.0 | 0.00 | 0.00 | 0.00 | 34 | 1013.4 |
| 20260507075631 | 66 | 350 | 0.0 | 0.0 | 0.00 | 0.00 | 0.00 | 34 | 1013.4 |
| 20260507075128 | 66 | 351 | 0.0 | 0.0 | 0.00 | 0.00 | 0.00 | 34 | 1013.4 |
| 20260507074624 | 66 | 349 | 0.0 | 0.0 | 0.00 | 0.00 | 0.00 | 34 | 1013.5 |
| 20260507074123 | 67 | 350 | 0.0 | 0.0 | 0.00 | 0.00 | 0.00 | 34 | 1013.3 |
| 20260507073619 | 67 | 351 | 0.0 | 0.0 | 0.00 | 0.00 | 0.00 | 34 | 1013.5 |
| 20260507073115 | 67 | 351 | 0.0 | 0.0 | 0.00 | 0.00 | 0.00 | 33 | 1013.3 |
| 20260507072613 | 67 | 352 | 0.0 | 0.0 | 0.00 | 0.00 | 0.00 | 33 | 1013.3 |
| 20260507072110 | 67 | 350 | 0.0 | 0.0 | 0.00 | 0.00 | 0.00 | 33 | 1013.2 |
| 20260507071607 | 67 | 351 | 0.0 | 0.0 | 0.00 | 0.00 | 0.00 | 33 | 1013.2 |
| 20260507071103 | 67 | 351 | 0.0 | 0.0 | 0.00 | 0.00 | 0.00 | 33 | 1013.3 |
| 20260507070601 | 67 | 352 | 0.0 | 0.0 | 0.00 | 0.00 | 0.00 | 33 | 1013.4 |
| 20260507070058 | 68 | 351 | 0.0 | 0.0 | 0.00 | 0.00 | 0.00 | 32 | 1013.4 |
| 20260507065554 | 68 | 344 | 0.0 | 0.0 | 0.00 | 0.00 | 0.00 | 32 | 1013.2 |
| 20260507065051 | 68 | 351 | 0.0 | 0.0 | 0.00 | 0.00 | 0.00 | 31 | 1013.4 |
| 20260507064549 | 68 | 351 | 0.0 | 0.0 | 0.00 | 0.00 | 0.00 | 31 | 1013.2 |
| 20260507064047 | 69 | 352 | 0.0 | 0.0 | 0.00 | 0.00 | 0.00 | 29 | 1013.2 |
| 20260507063544 | 69 | 352 | 0.0 | 0.0 | 0.00 | 0.00 | 0.00 | 28 | 1013.3 |
| 20260507063041 | 69 | 351 | 0.0 | 0.0 | 0.00 | 0.00 | 0.00 | 28 | 1013.1 |
| 20260507062538 | 70 | 351 | 0.0 | 0.0 | 0.00 | 0.00 | 0.00 | 28 | 1013.2 |
| 20260507062036 | 71 | 353 | 0.0 | 0.0 | 0.00 | 0.00 | 0.00 | 27 | 1013.3 |
| 20260507061533 | 71 | 353 | 0.0 | 0.0 | 0.00 | 0.00 | 0.00 | 27 | 1013.3 |
| 20260507061031 | 71 | 350 | 0.0 | 0.0 | 0.00 | 0.00 | 0.00 | 26 | 1013.1 |
| 20260507060529 | 71 | 351 | 0.0 | 0.0 | 0.00 | 0.00 | 0.00 | 27 | 1013.3 |
| 20260507060025 | 71 | 350 | 0.0 | 0.0 | 0.00 | 0.00 | 0.00 | 27 | 1013.4 |
| 20260507055520 | 71 | 351 | 0.0 | 0.0 | 0.00 | 0.00 | 0.00 | 27 | 1013.3 |
| 20260507055017 | 72 | 352 | 0.0 | 0.0 | 0.00 | 0.00 | 0.00 | 26 | 1013.3 |
| 20260507054513 | 72 | 335 | 0.0 | 0.0 | 0.00 | 0.00 | 0.00 | 26 | 1013.2 |
| 20260507054010 | 72 | 352 | 0.0 | 0.0 | 0.00 | 0.00 | 0.00 | 26 | 1013.3 |
| 20260507053508 | 72 | 352 | 0.0 | 0.0 | 0.00 | 0.00 | 0.00 | 26 | 1013.4 |
| 20260507053006 | 72 | 342 | 0.0 | 0.0 | 0.00 | 0.00 | 0.00 | 26 | 1013.2 |
| 20260507052503 | 73 | 350 | 0.0 | 0.0 | 0.00 | 0.00 | 0.00 | 25 | 1013.2 |
| 20260507051959 | 73 | 349 | 0.0 | 0.0 | 0.00 | 0.00 | 0.00 | 25 | 1013.5 |
| 20260507051458 | 74 | 9 | 0.0 | 0.0 | 0.00 | 0.00 | 0.00 | 25 | 1013.1 |
| 20260507050954 | 74 | 357 | 0.0 | 0.0 | 0.00 | 0.00 | 0.00 | 25 | 1013.3 |
| 20260507050450 | 75 | 355 | 0.0 | 0.0 | 0.00 | 0.00 | 0.00 | 24 | 1013.4 |
| 20260507045948 | 75 | 353 | 0.0 | 0.0 | 0.00 | 0.00 | 0.00 | 24 | 1013.4 |
| 20260507045444 | 75 | 351 | 0.0 | 0.0 | 0.00 | 0.00 | 0.00 | 24 | 1013.1 |
| 20260507044941 | 76 | 5 | 0.0 | 0.0 | 0.00 | 0.00 | 0.00 | 24 | 1013.1 |
| 20260507044438 | 76 | 352 | 0.0 | 0.0 | 0.00 | 0.00 | 0.00 | 23 | 1012.9 |
| 20260507043934 | 76 | 355 | 0.0 | 1.0 | 0.00 | 0.00 | 0.00 | 23 | 1013.0 |
| 20260507043430 | 76 | 352 | 0.0 | 0.0 | 0.00 | 0.00 | 0.00 | 24 | 1013.0 |
| 20260507042927 | 76 | 12 | 0.0 | 1.0 | 0.00 | 0.00 | 0.00 | 23 | 1013.1 |
| 20260507042424 | 76 | 348 | 0.0 | 0.0 | 0.00 | 0.00 | 0.00 | 23 | 1012.9 |
| 20260507041919 | 76 | 351 | 0.0 | 1.0 | 0.00 | 0.00 | 0.00 | 23 | 1012.8 |
| 20260507041416 | 76 | 330 | 0.0 | 0.0 | 0.00 | 0.00 | 0.00 | 24 | 1012.8 |
| 20260507040914 | 76 | 0 | 0.0 | 0.0 | 0.00 | 0.00 | 0.00 | 23 | 1012.7 |
| 20260507040409 | 77 | 342 | 1.0 | 1.0 | 0.00 | 0.00 | 0.00 | 23 | 1012.9 |
| 20260507035905 | 77 | 347 | 0.0 | 0.0 | 0.00 | 0.00 | 0.00 | 23 | 1012.4 |
| 20260507035402 | 77 | 351 | 0.0 | 0.0 | 0.00 | 0.00 | 0.00 | 23 | 1012.3 |
| 20260507034859 | 77 | 9 | 0.0 | 0.0 | 0.00 | 0.00 | 0.00 | 23 | 1012.5 |
| 20260507034355 | 78 | 2 | 0.0 | 0.0 | 0.00 | 0.00 | 0.00 | 22 | 1012.3 |
| 20260507033853 | 78 | 352 | 0.0 | 1.0 | 0.00 | 0.00 | 0.00 | 22 | 1012.3 |
| 20260507033351 | 78 | 11 | 0.0 | 0.0 | 0.00 | 0.00 | 0.00 | 22 | 1012.3 |
| 20260507032848 | 78 | 350 | 0.0 | 0.0 | 0.00 | 0.00 | 0.00 | 22 | 1012.2 |
| 20260507032345 | 78 | 328 | 2.0 | 2.0 | 0.00 | 0.00 | 0.00 | 22 | 1012.2 |
| 20260507031841 | 78 | 263 | 0.0 | 1.0 | 0.00 | 0.00 | 0.00 | 22 | 1012.0 |
| 20260507031338 | 78 | 18 | 1.0 | 2.0 | 0.00 | 0.00 | 0.00 | 22 | 1012.0 |
| 20260507030834 | 78 | 23 | 0.0 | 1.0 | 0.00 | 0.00 | 0.00 | 22 | 1012.0 |
| 20260507030332 | 78 | 338 | 0.0 | 0.0 | 0.00 | 0.00 | 0.00 | 22 | 1011.9 |
| 20260507025828 | 79 | 25 | 1.0 | 1.0 | 0.00 | 0.00 | 0.00 | 22 | 1011.8 |
| 20260507025326 | 79 | 57 | 2.0 | 3.0 | 0.00 | 0.00 | 0.00 | 22 | 1011.9 |
| 20260507024824 | 79 | 87 | 2.0 | 2.0 | 0.00 | 0.00 | 0.00 | 22 | 1011.8 |
| 20260507024321 | 79 | 327 | 1.0 | 2.0 | 0.00 | 0.00 | 0.00 | 22 | 1011.8 |
| 20260507023816 | 79 | 343 | 1.0 | 1.0 | 0.00 | 0.00 | 0.00 | 22 | 1011.8 |
| 20260507023313 | 79 | 223 | 0.0 | 1.0 | 0.00 | 0.00 | 0.00 | 22 | 1011.4 |
| 20260507022811 | 80 | 353 | 0.0 | 1.0 | 0.00 | 0.00 | 0.00 | 22 | 1011.4 |
| 20260507022307 | 80 | 351 | 0.0 | 0.0 | 0.00 | 0.00 | 0.00 | 22 | 1011.3 |
| 20260507021803 | 80 | 264 | 0.0 | 1.0 | 0.00 | 0.00 | 0.00 | 21 | 1011.4 |
| 20260507021259 | 80 | 359 | 2.0 | 2.0 | 0.00 | 0.00 | 0.00 | 21 | 1011.5 |
| 20260507020757 | 80 | 25 | 2.0 | 3.0 | 0.00 | 0.00 | 0.00 | 21 | 1011.3 |
| 20260507020253 | 81 | 16 | 1.0 | 1.0 | 0.00 | 0.00 | 0.00 | 21 | 1011.6 |
| 20260507015751 | 81 | 353 | 1.0 | 1.0 | 0.00 | 0.00 | 0.00 | 21 | 1011.1 |
| 20260507015248 | 81 | 308 | 4.0 | 6.0 | 0.00 | 0.00 | 0.00 | 21 | 1011.5 |
| 20260507014745 | 82 | 125 | 3.0 | 5.0 | 0.00 | 0.00 | 0.00 | 21 | 1011.6 |
| 20260507014241 | 82 | 130 | 3.0 | 3.0 | 0.00 | 0.00 | 0.00 | 20 | 1011.3 |
| 20260507013738 | 82 | 256 | 2.0 | 3.0 | 0.00 | 0.00 | 0.00 | 20 | 1011.1 |
| 20260507013235 | 82 | 271 | 2.0 | 2.0 | 0.00 | 0.00 | 0.00 | 20 | 1011.3 |
| 20260507012732 | 82 | 286 | 2.0 | 2.0 | 0.00 | 0.00 | 0.00 | 20 | 1011.1 |
| 20260507012228 | 83 | 175 | 3.0 | 3.0 | 0.00 | 0.00 | 0.00 | 20 | 1010.9 |
| 20260507011726 | 83 | 304 | 4.0 | 6.0 | 0.00 | 0.00 | 0.00 | 20 | 1011.5 |
| 20260507011222 | 83 | 80 | 4.0 | 5.0 | 0.00 | 0.00 | 0.00 | 20 | 1011.4 |
| 20260507010721 | 83 | 33 | 3.0 | 5.0 | 0.00 | 0.00 | 0.00 | 20 | 1011.1 |
| 20260507010218 | 83 | 248 | 1.0 | 2.0 | 0.00 | 0.00 | 0.00 | 20 | 1011.1 |
| 20260507005716 | 83 | 127 | 2.0 | 3.0 | 0.00 | 0.00 | 0.00 | 21 | 1011.1 |
| 20260507005211 | 83 | 233 | 3.0 | 3.0 | 0.00 | 0.00 | 0.00 | 21 | 1011.4 |
| 20260507004708 | 83 | 194 | 4.0 | 5.0 | 0.00 | 0.00 | 0.00 | 21 | 1011.0 |
| 20260507004206 | 83 | 164 | 3.0 | 3.0 | 0.00 | 0.00 | 0.00 | 21 | 1011.0 |
| 20260507003702 | 83 | 39 | 2.0 | 3.0 | 0.00 | 0.00 | 0.00 | 21 | 1011.4 |
| 20260507003157 | 83 | 303 | 2.0 | 3.0 | 0.00 | 0.00 | 0.00 | 20 | 1011.4 |
| 20260507002654 | 83 | 153 | 4.0 | 7.0 | 0.00 | 0.00 | 0.00 | 20 | 1011.5 |
| 20260507002149 | 84 | 194 | 3.0 | 5.0 | 0.00 | 0.00 | 0.00 | 21 | 1011.0 |
| 20260507001647 | 84 | 0 | 1.0 | 1.0 | 0.00 | 0.00 | 0.00 | 21 | 1011.1 |
| 20260507001144 | 84 | 307 | 1.0 | 2.0 | 0.00 | 0.00 | 0.00 | 20 | 1011.4 |
| 20260507000640 | 84 | 8 | 2.0 | 2.0 | 0.00 | 0.00 | 0.00 | 20 | 1011.1 |
| 20260507000136 | 85 | 308 | 3.0 | 3.0 | 0.00 | 0.00 | 0.00 | 20 | 1011.5 |
| 20260506235633 | 84 | 294 | 3.0 | 5.0 | 0.00 | 0.00 | 0.00 | 20 | 1011.3 |
| 20260506235133 | 84 | 141 | 3.0 | 5.0 | 0.00 | 0.00 | 0.00 | 20 | 1011.0 |
| 20260506234631 | 84 | 355 | 3.0 | 3.0 | 0.00 | 0.00 | 0.00 | 20 | 1011.1 |
| 20260506234128 | 85 | 319 | 2.0 | 2.0 | 0.00 | 0.00 | 0.00 | 20 | 1011.4 |
| 20260506233625 | 84 | 21 | 5.0 | 6.0 | 0.00 | 0.00 | 0.00 | 20 | 1011.7 |
| 20260506233122 | 86 | 266 | 3.0 | 5.0 | 0.00 | 0.00 | 0.00 | 20 | 1011.5 |
| 20260506232618 | 84 | 194 | 3.0 | 6.0 | 0.00 | 0.00 | 0.00 | 20 | 1011.5 |
| 20260506232114 | 84 | 347 | 6.0 | 8.0 | 0.00 | 0.00 | 0.00 | 21 | 1011.7 |
| 20260506231611 | 84 | 6 | 1.0 | 2.0 | 0.00 | 0.00 | 0.00 | 21 | 1011.8 |
| 20260506231109 | 84 | 31 | 4.0 | 5.0 | 0.00 | 0.00 | 0.00 | 21 | 1011.8 |
| 20260506230606 | 85 | 167 | 1.0 | 2.0 | 0.00 | 0.00 | 0.00 | 20 | 1011.7 |
| 20260506230103 | 86 | 42 | 0.0 | 1.0 | 0.00 | 0.00 | 0.00 | 20 | 1011.8 |
| 20260506225559 | 85 | 350 | 0.0 | 0.0 | 0.00 | 0.00 | 0.00 | 20 | 1011.9 |
| 20260506225055 | 84 | 21 | 1.0 | 1.0 | 0.00 | 0.00 | 0.00 | 21 | 1011.8 |
| 20260506224553 | 85 | 95 | 1.0 | 2.0 | 0.00 | 0.00 | 0.00 | 21 | 1011.8 |
| 20260506224049 | 85 | 330 | 1.0 | 1.0 | 0.00 | 0.00 | 0.00 | 20 | 1012.1 |
| 20260506223545 | 85 | 36 | 2.0 | 3.0 | 0.00 | 0.00 | 0.00 | 20 | 1012.2 |
| 20260506223042 | 85 | 162 | 2.0 | 5.0 | 0.00 | 0.00 | 0.00 | 20 | 1012.2 |
| 20260506222539 | 85 | 319 | 1.0 | 1.0 | 0.00 | 0.00 | 0.00 | 20 | 1012.3 |
| 20260506222035 | 85 | 332 | 2.0 | 2.0 | 0.00 | 0.00 | 0.00 | 21 | 1012.4 |
| 20260506221533 | 84 | 3 | 2.0 | 2.0 | 0.00 | 0.00 | 0.00 | 21 | 1012.1 |
| 20260506221030 | 84 | 4 | 2.0 | 3.0 | 0.00 | 0.00 | 0.00 | 21 | 1012.4 |
| 20260506220526 | 84 | 172 | 4.0 | 6.0 | 0.00 | 0.00 | 0.00 | 21 | 1012.5 |
| 20260506220022 | 85 | 11 | 1.0 | 2.0 | 0.00 | 0.00 | 0.00 | 21 | 1012.5 |
| 20260506215519 | 85 | 328 | 2.0 | 3.0 | 0.00 | 0.00 | 0.00 | 21 | 1012.4 |
| 20260506215015 | 84 | 355 | 3.0 | 3.0 | 0.00 | 0.00 | 0.00 | 21 | 1012.7 |
| 20260506214512 | 84 | 313 | 1.0 | 2.0 | 0.00 | 0.00 | 0.00 | 21 | 1012.6 |
| 20260506214009 | 85 | 308 | 3.0 | 5.0 | 0.00 | 0.00 | 0.00 | 21 | 1012.8 |
| 20260506213507 | 84 | 327 | 2.0 | 3.0 | 0.00 | 0.00 | 0.00 | 21 | 1012.9 |
| 20260506213004 | 84 | 24 | 2.0 | 2.0 | 0.00 | 0.00 | 0.00 | 21 | 1013.1 |
| 20260506212500 | 84 | 346 | 1.0 | 1.0 | 0.00 | 0.00 | 0.00 | 20 | 1013.0 |
| 20260506211955 | 86 | 353 | 0.0 | 1.0 | 0.00 | 0.00 | 0.00 | 20 | 1013.2 |
| 20260506211451 | 85 | 345 | 0.0 | 0.0 | 0.00 | 0.00 | 0.00 | 21 | 1013.0 |
| 20260506210949 | 84 | 3 | 0.0 | 0.0 | 0.00 | 0.00 | 0.00 | 21 | 1013.5 |
| 20260506210445 | 85 | 256 | 4.0 | 6.0 | 0.00 | 0.00 | 0.00 | 21 | 1013.5 |
| 20260506205942 | 84 | 333 | 1.0 | 2.0 | 0.00 | 0.00 | 0.00 | 21 | 1013.4 |
| 20260506205438 | 84 | 163 | 2.0 | 3.0 | 0.00 | 0.00 | 0.00 | 21 | 1013.6 |
| 20260506204934 | 83 | 347 | 1.0 | 2.0 | 0.00 | 0.00 | 0.00 | 22 | 1013.6 |
| 20260506204432 | 84 | 340 | 0.0 | 1.0 | 0.00 | 0.00 | 0.00 | 21 | 1013.7 |
| 20260506203929 | 84 | 310 | 1.0 | 1.0 | 0.00 | 0.00 | 0.00 | 22 | 1013.6 |
| 20260506203426 | 84 | 346 | 0.0 | 0.0 | 0.00 | 0.00 | 0.00 | 22 | 1013.7 |
| 20260506202923 | 82 | 327 | 1.0 | 1.0 | 0.00 | 0.00 | 0.00 | 22 | 1013.8 |
| 20260506202421 | 83 | 25 | 2.0 | 3.0 | 0.00 | 0.00 | 0.00 | 22 | 1013.9 |
| 20260506201917 | 83 | 291 | 1.0 | 1.0 | 0.00 | 0.00 | 0.00 | 23 | 1013.7 |
| 20260506201414 | 83 | 359 | 0.0 | 0.0 | 0.00 | 0.00 | 0.00 | 22 | 1014.2 |
| 20260506200911 | 82 | 130 | 3.0 | 5.0 | 0.00 | 0.00 | 0.00 | 22 | 1013.9 |
| 20260506200407 | 82 | 283 | 2.0 | 2.0 | 0.00 | 0.00 | 0.00 | 23 | 1014.1 |
| 20260506195904 | 82 | 353 | 0.0 | 1.0 | 0.00 | 0.00 | 0.00 | 23 | 1014.2 |
| 20260506195401 | 82 | 38 | 2.0 | 3.0 | 0.00 | 0.00 | 0.00 | 23 | 1014.3 |
| 20260506194858 | 82 | 86 | 3.0 | 5.0 | 0.00 | 0.00 | 0.00 | 22 | 1014.1 |
| 20260506194354 | 82 | 324 | 2.0 | 2.0 | 0.00 | 0.00 | 0.00 | 23 | 1014.3 |
| 20260506193852 | 82 | 352 | 0.0 | 1.0 | 0.00 | 0.00 | 0.00 | 22 | 1014.2 |
| 20260506193349 | 82 | 326 | 0.0 | 0.0 | 0.00 | 0.00 | 0.00 | 23 | 1014.5 |
| 20260506192845 | 83 | 359 | 0.0 | 0.0 | 0.00 | 0.00 | 0.00 | 23 | 1014.4 |
| 20260506192342 | 81 | 348 | 1.0 | 1.0 | 0.00 | 0.00 | 0.00 | 23 | 1014.3 |
| 20260506191839 | 82 | 337 | 0.0 | 1.0 | 0.00 | 0.00 | 0.00 | 24 | 1014.6 |
| 20260506191335 | 81 | 342 | 4.0 | 5.0 | 0.00 | 0.00 | 0.00 | 23 | 1014.5 |
| 20260506190832 | 82 | 238 | 3.0 | 5.0 | 0.00 | 0.00 | 0.00 | 23 | 1014.7 |
| 20260506190328 | 82 | 342 | 1.0 | 1.0 | 0.00 | 0.00 | 0.00 | 23 | 1014.5 |
| 20260506185825 | 81 | 232 | 1.0 | 2.0 | 0.00 | 0.00 | 0.00 | 23 | 1014.6 |
| 20260506185322 | 81 | 0 | 0.0 | 1.0 | 0.00 | 0.00 | 0.00 | 22 | 1014.5 |
| 20260506184819 | 81 | 358 | 1.0 | 1.0 | 0.00 | 0.00 | 0.00 | 24 | 1014.7 |
| 20260506184317 | 81 | 349 | 4.0 | 6.0 | 0.00 | 0.00 | 0.00 | 23 | 1014.9 |
| 20260506183814 | 82 | 293 | 1.0 | 1.0 | 0.00 | 0.00 | 0.00 | 23 | 1014.9 |
| 20260506183309 | 81 | 346 | 1.0 | 1.0 | 0.00 | 0.00 | 0.00 | 23 | 1014.8 |
| 20260506182806 | 80 | 358 | 0.0 | 0.0 | 0.00 | 0.00 | 0.00 | 24 | 1015.0 |
| 20260506182306 | 79 | 358 | 0.0 | 1.0 | 0.00 | 0.00 | 0.00 | 24 | 1015.1 |
| 20260506181801 | 79 | 352 | 1.0 | 2.0 | 0.00 | 0.00 | 0.00 | 25 | 1015.0 |
| 20260506181259 | 80 | 345 | 0.0 | 0.0 | 0.00 | 0.00 | 0.00 | 23 | 1015.3 |
| 20260506180756 | 79 | 34 | 2.0 | 2.0 | 0.00 | 0.00 | 0.00 | 23 | 1015.3 |
| 20260506180251 | 80 | 20 | 1.0 | 2.0 | 0.00 | 0.00 | 0.00 | 24 | 1015.3 |
| 20260506175748 | 81 | 332 | 1.0 | 1.0 | 0.00 | 0.00 | 0.00 | 25 | 1015.4 |
| 20260506175245 | 79 | 5 | 0.0 | 0.0 | 0.00 | 0.00 | 0.00 | 25 | 1015.6 |
| 20260506174742 | 78 | 29 | 1.0 | 2.0 | 0.00 | 0.00 | 0.00 | 25 | 1015.4 |
| 20260506174239 | 78 | 359 | 0.0 | 0.0 | 0.00 | 0.00 | 0.00 | 25 | 1015.4 |
| 20260506173737 | 77 | 0 | 0.0 | 0.0 | 0.00 | 0.00 | 0.00 | 26 | 1015.4 |
| 20260506173234 | 77 | 359 | 1.0 | 1.0 | 0.00 | 0.00 | 0.00 | 26 | 1015.6 |
| 20260506172731 | 77 | 358 | 1.0 | 1.0 | 0.00 | 0.00 | 0.00 | 28 | 1015.6 |